Weather History for Cedar Rapids, IA

Change the Weather History Date:

Saturday, June 15, 2013

  Actual Average Record
Temperature  
Mean Temperature 72 °F 70 °F  
Max Temperature 79 °F 80 °F 99 °F (1896)
Min Temperature 65 °F 59 °F 42 °F (1927)
Degree Days  
Heating Degree Days 0 1  
Month to date heating degree days 28 23  
Since 1 June heating degree days 28 23  
Since 1 July heating degree days 6997 6860  
Cooling Degree Days 7 6  
Month to date cooling degree days 38 62  
Year to date cooling degree days 112 111  
Since 1 June cooling degree days 38 62  
Growing Degree Days 22 (Base 50)    
Moisture  
Dew Point 65 °F    
Average Humidity 84    
Maximum Humidity 93    
Minimum Humidity 74    
Precipitation  
Precipitation 0.39 in 0.17 in 3.01 in (1982)
Month to date precipitation 1.24 2.36  
Year to date precipitation 21.43 13.80  
Sea Level Pressure  
Sea Level Pressure 29.93 in    
Wind  
Wind Speed 9 mph (SSW)    
Max Wind Speed 25 mph    
Max Gust Speed 33 mph    
Visibility 8 miles    
Events Rain , Thunderstorm    
T = Trace of Precipitation, MM = Missing Value Source: NWS Daily Summary

Daily Weather History Graph

Daily Weather History Graph

Search for Another Location

Airport:

Trip Planner

Search our weather history database for the weather conditions in past years. The results will help you decide how hot, cold, wet, or windy it might be!

Date:

Astronomy

Jun. 15, 2013 Rise Set
Actual Time 5:31 AM CDT 8:43 PM CDT
Civil Twilight 4:56 AM CDT 9:18 PM CDT
Nautical Twilight 4:12 AM CDT 10:02 PM CDT
Astronomical Twilight 3:19 AM CDT 10:55 PM CDT
Moon 12:11 PM CDT (6/15) 12:14 AM CDT (6/15)
Length of Visible Light 16h 21m
Length of Day
15h 12m
Waxing Crescent, 40% of the Moon is Illuminated
Jun 15
Waxing Crescent
Jun 16
First Quarter
Jun 23
Full
Jun 29
Last Quarter
Jul 8
New

Hourly Weather History & Observations

Time (CDT) Temp. Dew Point Humidity Pressure Visibility Wind Dir Wind Speed Gust Speed Precip Events Conditions
12:52 AM 66.0 °F 62.1 °F 87% 30.01 in 9.0 mi West 5.8 mph - 0.00 in Rain , Thunderstorm Light Rain
1:30 AM 66.2 °F 62.6 °F 88% 30.02 in 2.5 mi SW 3.5 mph - 0.09 in Rain Heavy Rain
1:48 AM 66.2 °F 62.6 °F 88% 30.01 in 4.0 mi SSW 6.9 mph - 0.17 in Rain , Thunderstorm Thunderstorms and Rain
1:49 AM 66.0 °F 63.0 °F 90% 29.99 in 4.0 mi SSW 6.9 mph - 0.17 in Rain , Thunderstorm Thunderstorms and Rain
2:23 AM 64.4 °F 62.6 °F 94% 30.00 in 5.0 mi South 13.8 mph - 0.05 in Rain Rain
2:35 AM 64.4 °F 62.6 °F 94% 29.98 in 4.0 mi South 12.7 mph - 0.09 in Rain , Thunderstorm Rain
2:49 AM 64.4 °F 62.6 °F 94% 29.98 in 5.0 mi South 10.4 mph - 0.12 in Rain , Thunderstorm Light Rain
2:50 AM 64.9 °F 63.0 °F 93% 29.97 in 6.0 mi South 9.2 mph - 0.12 in Rain , Thunderstorm Light Rain
3:35 AM 64.4 °F 62.6 °F 94% 29.93 in 7.0 mi SE 8.1 mph - 0.09 in Rain Light Rain
3:52 AM 66.0 °F 63.0 °F 90% 29.90 in 9.0 mi South 9.2 mph - 0.10 in Rain Light Rain
4:52 AM 66.0 °F 63.0 °F 90% 29.90 in 10.0 mi NE 10.4 mph - 0.00 in   Mostly Cloudy
5:52 AM 64.9 °F 63.0 °F 93% 29.92 in 8.0 mi ENE 10.4 mph - 0.00 in Rain Light Rain
6:52 AM 66.0 °F 64.0 °F 93% 29.93 in 5.0 mi SE 4.6 mph - 0.01 in   Clear
7:52 AM 66.9 °F 64.9 °F 93% 29.95 in 5.0 mi SSE 5.8 mph - N/A   Scattered Clouds
8:52 AM 69.1 °F 64.9 °F 87% 29.95 in 6.0 mi South 10.4 mph - N/A   Partly Cloudy
9:52 AM 72.0 °F 66.0 °F 81% 29.94 in 9.0 mi South 8.1 mph - N/A   Mostly Cloudy
10:52 AM 75.9 °F 66.0 °F 71% 29.95 in 10.0 mi South 10.4 mph 20.7 mph N/A   Scattered Clouds
11:52 AM 75.0 °F 66.0 °F 73% 29.93 in 10.0 mi South 6.9 mph - 0.00 in Rain Light Rain
12:52 PM 75.9 °F 66.9 °F 74% 29.94 in 10.0 mi SW 9.2 mph - 0.00 in   Mostly Cloudy
1:52 PM 75.0 °F 66.9 °F 76% 29.92 in 10.0 mi SSW 4.6 mph - N/A   Scattered Clouds
2:52 PM 77.0 °F 68.0 °F 74% 29.93 in 10.0 mi SSW 9.2 mph - N/A   Scattered Clouds
3:52 PM 77.0 °F 68.0 °F 74% 29.94 in 10.0 mi West 6.9 mph - N/A   Mostly Cloudy
4:52 PM 77.0 °F 68.0 °F 74% 29.84 in 10.0 mi SSE 12.7 mph - 0.00 in   Partly Cloudy
5:52 PM 79.0 °F 69.1 °F 72% 29.85 in 10.0 mi South 10.4 mph - N/A   Clear
6:27 PM 77.0 °F 69.8 °F 78% 29.89 in 10.0 mi SW 9.2 mph - N/A   Mostly Cloudy
6:52 PM 77.0 °F 69.8 °F 78% 29.88 in 10.0 mi SSW 8.1 mph - N/A   Mostly Cloudy
7:31 PM 75.2 °F 62.6 °F 65% 29.90 in 10.0 mi SW 16.1 mph 25.3 mph N/A Thunderstorm Thunderstorm
7:32 PM 75.2 °F 62.6 °F 65% 29.90 in 10.0 mi SW 15.0 mph 25.3 mph 0.00 in Rain , Thunderstorm Light Thunderstorms and Rain
7:52 PM 73.0 °F 63.0 °F 71% 29.88 in 10.0 mi SW 3.5 mph - 0.00 in Rain , Thunderstorm Light Thunderstorms and Rain
8:52 PM 72.0 °F 62.1 °F 71% 29.88 in 10.0 mi SSW 8.1 mph - 0.00 in   Mostly Cloudy
9:52 PM 71.1 °F 64.0 °F 78% 29.91 in 10.0 mi SW 23.0 mph 31.1 mph N/A   Clear
10:52 PM 69.1 °F 64.0 °F 84% 29.93 in 10.0 mi SW 16.1 mph 24.2 mph N/A   Clear
11:52 PM 68.0 °F 63.0 °F 84% 29.93 in 10.0 mi SW 10.4 mph - N/A   Clear